| time (UTC) | temp C | wind direction | speed KPH | gust KPH | rain 1hr cm | rain 24hr cm | rain mn cm | humidity % | barometer mb |
| 20260502224517 | 14 | 360 | 0.0 | 0.0 | 0.00 | 0.00 | 0.00 | 48 | 1011.4 |
| 20260502224012 | 15 | 329 | 0.0 | 3.2 | 0.00 | 0.00 | 0.00 | 48 | 1011.5 |
| 20260502223503 | 15 | 320 | 0.0 | 3.2 | 0.00 | 0.00 | 0.00 | 50 | 1011.4 |
| 20260502223034 | 15 | 337 | 0.0 | 3.2 | 0.00 | 0.00 | 0.00 | 47 | 1011.4 |
| 20260502222511 | 15 | 61 | 0.0 | 3.2 | 0.00 | 0.00 | 0.00 | 49 | 1011.5 |
| 20260502222010 | 15 | 41 | 0.0 | 3.2 | 0.00 | 0.00 | 0.00 | 49 | 1011.5 |
| 20260502221522 | 15 | 73 | 0.0 | 1.6 | 0.00 | 0.00 | 0.00 | 50 | 1011.4 |
| 20260502221015 | 15 | 26 | 0.0 | 1.6 | 0.00 | 0.00 | 0.00 | 46 | 1011.5 |
| 20260502220508 | 15 | 49 | 0.0 | 3.2 | 0.00 | 0.00 | 0.00 | 46 | 1011.6 |
| 20260502220022 | 15 | 333 | 0.0 | 6.4 | 0.00 | 0.00 | 0.00 | 46 | 1011.6 |
| 20260502215510 | 15 | 355 | 0.0 | 6.4 | 0.00 | 0.00 | 0.00 | 47 | 1011.7 |
| 20260502215007 | 15 | 69 | 0.0 | 6.4 | 0.00 | 0.00 | 0.00 | 49 | 1011.8 |
| 20260502214524 | 15 | 302 | 0.0 | 6.4 | 0.00 | 0.00 | 0.00 | 49 | 1011.7 |
| 20260502214016 | 15 | 314 | 1.6 | 9.7 | 0.00 | 0.00 | 0.00 | 49 | 1011.7 |
| 20260502213507 | 15 | 308 | 0.0 | 9.7 | 0.00 | 0.00 | 0.00 | 49 | 1011.7 |
| 20260502213023 | 15 | 303 | 1.6 | 8.0 | 0.00 | 0.00 | 0.00 | 47 | 1011.8 |
| 20260502212507 | 15 | 24 | 0.0 | 4.8 | 0.00 | 0.00 | 0.00 | 48 | 1011.7 |
| 20260502212011 | 15 | 334 | 0.0 | 4.8 | 0.00 | 0.00 | 0.00 | 49 | 1011.7 |
| 20260502211532 | 15 | 33 | 0.0 | 4.8 | 0.00 | 0.00 | 0.00 | 49 | 1011.6 |
| 20260502211010 | 14 | 323 | 0.0 | 6.4 | 0.00 | 0.00 | 0.00 | 48 | 1011.6 |
| 20260502210513 | 14 | 9 | 1.6 | 6.4 | 0.00 | 0.00 | 0.00 | 48 | 1011.5 |
| 20260502210021 | 14 | 352 | 0.0 | 6.4 | 0.00 | 0.00 | 0.00 | 48 | 1011.6 |
| 20260502205517 | 14 | 292 | 0.0 | 6.4 | 0.00 | 0.00 | 0.00 | 48 | 1011.6 |
| 20260502205009 | 15 | 333 | 1.6 | 6.4 | 0.00 | 0.00 | 0.00 | 48 | 1011.5 |
| 20260502204504 | 15 | 61 | 0.0 | 6.4 | 0.00 | 0.00 | 0.00 | 46 | 1011.5 |
| 20260502204007 | 15 | 53 | 0.0 | 4.8 | 0.00 | 0.00 | 0.00 | 49 | 1011.5 |
| 20260502203506 | 15 | 360 | 0.0 | 4.8 | 0.00 | 0.00 | 0.00 | 46 | 1011.6 |
| 20260502203004 | 15 | 327 | 1.6 | 4.8 | 0.00 | 0.00 | 0.00 | 49 | 1011.7 |
| 20260502202506 | 15 | 334 | 0.0 | 8.0 | 0.00 | 0.00 | 0.00 | 46 | 1011.7 |
| 20260502202009 | 15 | 325 | 0.0 | 8.0 | 0.00 | 0.00 | 0.00 | 48 | 1011.7 |
| 20260502201503 | 15 | 333 | 1.6 | 8.0 | 0.00 | 0.00 | 0.00 | 47 | 1011.8 |
| 20260502201004 | 15 | 360 | 1.6 | 8.0 | 0.00 | 0.00 | 0.00 | 48 | 1011.7 |
| 20260502200507 | 15 | 10 | 1.6 | 6.4 | 0.00 | 0.00 | 0.00 | 46 | 1011.9 |
| 20260502200010 | 15 | 313 | 1.6 | 6.4 | 0.00 | 0.00 | 0.00 | 45 | 1012.0 |
| 20260502195507 | 15 | 323 | 0.0 | 4.8 | 0.00 | 0.00 | 0.00 | 48 | 1011.9 |
| 20260502195005 | 14 | 348 | 1.6 | 8.0 | 0.00 | 0.00 | 0.00 | 47 | 1011.8 |
| 20260502194512 | 14 | 59 | 0.0 | 8.0 | 0.00 | 0.00 | 0.00 | 45 | 1012.0 |
| 20260502194007 | 15 | 167 | 0.0 | 8.0 | 0.00 | 0.00 | 0.00 | 48 | 1012.1 |
| 20260502193509 | 14 | 157 | 1.6 | 6.4 | 0.00 | 0.00 | 0.00 | 42 | 1012.0 |
| 20260502193006 | 15 | 350 | 0.0 | 6.4 | 0.00 | 0.00 | 0.00 | 45 | 1012.4 |
| 20260502192512 | 15 | 304 | 0.0 | 6.4 | 0.00 | 0.00 | 0.00 | 44 | 1012.3 |
| 20260502192007 | 15 | 39 | 0.0 | 6.4 | 0.00 | 0.00 | 0.00 | 47 | 1012.4 |
| 20260502191507 | 14 | 12 | 1.6 | 6.4 | 0.00 | 0.00 | 0.00 | 48 | 1012.6 |
| 20260502191006 | 14 | 275 | 0.0 | 8.0 | 0.00 | 0.00 | 0.00 | 46 | 1012.5 |
| 20260502190503 | 15 | 327 | 1.6 | 9.7 | 0.00 | 0.00 | 0.00 | 44 | 1012.6 |
| 20260502190010 | 14 | 317 | 1.6 | 9.7 | 0.00 | 0.00 | 0.00 | 47 | 1012.7 |
| 20260502185504 | 14 | 289 | 1.6 | 6.4 | 0.00 | 0.00 | 0.00 | 48 | 1012.7 |
| 20260502185003 | 14 | 115 | 0.0 | 6.4 | 0.00 | 0.00 | 0.00 | 50 | 1012.8 |
| 20260502184511 | 14 | 51 | 0.0 | 6.4 | 0.00 | 0.00 | 0.00 | 50 | 1012.9 |
| 20260502184006 | 14 | 38 | 0.0 | 8.0 | 0.00 | 0.00 | 0.00 | 49 | 1012.9 |
| 20260502183512 | 14 | 294 | 1.6 | 8.0 | 0.00 | 0.00 | 0.00 | 45 | 1012.9 |
| 20260502183008 | 15 | 320 | 0.0 | 9.7 | 0.00 | 0.00 | 0.00 | 45 | 1012.9 |
| 20260502182509 | 14 | 76 | 0.0 | 9.7 | 0.00 | 0.00 | 0.00 | 50 | 1013.0 |
| 20260502182003 | 14 | 340 | 0.0 | 12.9 | 0.00 | 0.00 | 0.00 | 48 | 1013.1 |
| 20260502181510 | 14 | 314 | 1.6 | 14.5 | 0.00 | 0.00 | 0.00 | 48 | 1013.3 |
| 20260502181005 | 14 | 345 | 0.0 | 14.5 | 0.00 | 0.00 | 0.00 | 51 | 1013.4 |
| 20260502180502 | 15 | 339 | 8.0 | 14.5 | 0.00 | 0.00 | 0.00 | 49 | 1013.5 |
| 20260502170507 | 12 | 321 | 1.6 | 12.9 | 0.00 | 0.00 | 0.00 | 50 | 1014.4 |
| 20260502164009 | 12 | 297 | 3.2 | 9.7 | 0.00 | 0.00 | 0.00 | 52 | 1014.5 |
| 20260502163504 | 12 | 46 | 1.6 | 8.0 | 0.00 | 0.00 | 0.00 | 53 | 1014.5 |
| 20260502163035 | 12 | 326 | 1.6 | 12.9 | 0.00 | 0.00 | 0.00 | 51 | 1014.5 |
| 20260502162509 | 12 | 344 | 4.8 | 12.9 | 0.00 | 0.00 | 0.00 | 51 | 1014.5 |
| 20260502162011 | 12 | 12 | 3.2 | 11.3 | 0.00 | 0.00 | 0.00 | 51 | 1014.6 |
| 20260502161525 | 12 | 340 | 3.2 | 11.3 | 0.00 | 0.00 | 0.00 | 53 | 1014.6 |
| 20260502161010 | 12 | 360 | 0.0 | 11.3 | 0.00 | 0.00 | 0.00 | 51 | 1014.6 |
| 20260502160506 | 12 | 47 | 3.2 | 8.0 | 0.00 | 0.00 | 0.00 | 50 | 1014.7 |
| 20260502152008 | 12 | 319 | 3.2 | 19.3 | 0.00 | 0.00 | 0.00 | 55 | 1015.1 |
| 20260502151520 | 11 | 340 | 6.4 | 19.3 | 0.00 | 0.00 | 0.00 | 56 | 1015.0 |
| 20260502151011 | 11 | 24 | 6.4 | 16.1 | 0.00 | 0.00 | 0.00 | 54 | 1014.7 |
| 20260502150504 | 11 | 330 | 4.8 | 14.5 | 0.00 | 0.00 | 0.00 | 55 | 1014.7 |
| 20260502130507 | 11 | 329 | 0.0 | 11.3 | 0.00 | 0.00 | 0.00 | 68 | 1014.4 |
| 20260502123509 | 11 | 260 | 1.6 | 12.9 | 0.00 | 0.00 | 0.00 | 73 | 1013.9 |
| 20260502123038 | 11 | 360 | 1.6 | 8.0 | 0.00 | 0.00 | 0.00 | 74 | 1013.8 |
| 20260502122506 | 11 | 61 | 0.0 | 8.0 | 0.00 | 0.00 | 0.00 | 74 | 1014.0 |
| 20260502122011 | 11 | 19 | 0.0 | 12.9 | 0.00 | 0.00 | 0.00 | 75 | 1013.7 |
| 20260502121527 | 11 | 355 | 0.0 | 12.9 | 0.00 | 0.00 | 0.00 | 75 | 1013.8 |
| 20260502121008 | 11 | 58 | 3.2 | 11.3 | 0.00 | 0.00 | 0.00 | 74 | 1013.8 |
| 20260502120514 | 11 | 311 | 0.0 | 8.0 | 0.00 | 0.00 | 0.00 | 76 | 1013.7 |
| 20260502115504 | 10 | 24 | 1.6 | 9.7 | 0.00 | 0.00 | 0.00 | 78 | 1013.7 |
| 20260502115003 | 10 | 267 | 0.0 | 6.4 | 0.00 | 0.00 | 0.00 | 79 | 1013.6 |
| 20260502114508 | 10 | 317 | 1.6 | 4.8 | 0.00 | 0.00 | 0.00 | 80 | 1013.8 |
| 20260502114008 | 10 | 338 | 0.0 | 9.7 | 0.00 | 0.00 | 0.00 | 81 | 1013.8 |
| 20260502113506 | 10 | 42 | 0.0 | 9.7 | 0.00 | 0.00 | 0.00 | 82 | 1013.8 |
| 20260502113009 | 10 | 324 | 0.0 | 4.8 | 0.00 | 0.00 | 0.00 | 85 | 1013.7 |
| 20260502112507 | 9 | 347 | 0.0 | 1.6 | 0.00 | 0.00 | 0.00 | 86 | 1013.7 |
| 20260502112004 | 9 | 355 | 0.0 | 1.6 | 0.00 | 0.00 | 0.00 | 87 | 1013.7 |
| 20260502111507 | 9 | 32 | 0.0 | 4.8 | 0.00 | 0.00 | 0.00 | 89 | 1013.7 |
| 20260502111007 | 8 | 333 | 0.0 | 4.8 | 0.00 | 0.00 | 0.00 | 91 | 1013.7 |
| 20260502110504 | 8 | 16 | 0.0 | 3.2 | 0.00 | 0.00 | 0.00 | 92 | 1013.7 |
| 20260502110014 | 8 | 33 | 0.0 | 0.0 | 0.00 | 0.00 | 0.00 | 93 | 1013.8 |
| 20260502105509 | 8 | 348 | 0.0 | 0.0 | 0.00 | 0.00 | 0.00 | 93 | 1013.8 |
| 20260502105003 | 8 | 348 | 0.0 | 0.0 | 0.00 | 0.00 | 0.00 | 93 | 1013.8 |
| 20260502104515 | 8 | 348 | 0.0 | 0.0 | 0.00 | 0.00 | 0.00 | 93 | 1013.8 |
| 20260502104008 | 8 | 348 | 0.0 | 0.0 | 0.00 | 0.00 | 0.00 | 93 | 1013.6 |
| 20260502103502 | 8 | 348 | 0.0 | 0.0 | 0.00 | 0.00 | 0.00 | 93 | 1013.6 |
| 20260502103011 | 8 | 348 | 0.0 | 0.0 | 0.00 | 0.00 | 0.00 | 93 | 1013.6 |
| 20260502102511 | 8 | 348 | 0.0 | 0.0 | 0.00 | 0.00 | 0.00 | 93 | 1013.6 |
| 20260502102004 | 8 | 348 | 0.0 | 0.0 | 0.00 | 0.00 | 0.00 | 93 | 1013.5 |
| 20260502101513 | 8 | 348 | 0.0 | 0.0 | 0.00 | 0.00 | 0.00 | 93 | 1013.4 |
| 20260502101007 | 8 | 348 | 0.0 | 0.0 | 0.00 | 0.00 | 0.00 | 93 | 1013.4 |
| 20260502100504 | 8 | 348 | 0.0 | 0.0 | 0.00 | 0.00 | 0.00 | 93 | 1013.3 |
| 20260502091516 | 8 | 348 | 0.0 | 0.0 | 0.00 | 0.00 | 0.00 | 91 | 1013.1 |
| 20260502091009 | 8 | 348 | 0.0 | 0.0 | 0.00 | 0.00 | 0.00 | 91 | 1013.1 |
| 20260502090503 | 8 | 348 | 0.0 | 0.0 | 0.00 | 0.00 | 0.00 | 91 | 1013.1 |
| 20260502071522 | 9 | 348 | 0.0 | 0.0 | 0.00 | 0.00 | 0.00 | 86 | 1012.4 |
| 20260502071006 | 9 | 348 | 0.0 | 0.0 | 0.00 | 0.00 | 0.00 | 86 | 1012.5 |
| 20260502070512 | 10 | 348 | 0.0 | 0.0 | 0.00 | 0.00 | 0.00 | 85 | 1012.4 |
| 20260502070024 | 10 | 348 | 0.0 | 0.0 | 0.00 | 0.00 | 0.00 | 84 | 1012.3 |
| 20260502065507 | 10 | 348 | 0.0 | 0.0 | 0.00 | 0.00 | 0.00 | 84 | 1012.4 |
| 20260502065006 | 10 | 348 | 0.0 | 0.0 | 0.00 | 0.00 | 0.00 | 84 | 1012.4 |
| 20260502064528 | 10 | 348 | 0.0 | 0.0 | 0.00 | 0.00 | 0.00 | 84 | 1012.4 |
| 20260502064006 | 10 | 348 | 0.0 | 0.0 | 0.00 | 0.00 | 0.00 | 84 | 1012.4 |
| 20260502063507 | 10 | 348 | 0.0 | 0.0 | 0.00 | 0.00 | 0.00 | 83 | 1012.4 |
| 20260502063023 | 10 | 348 | 0.0 | 0.0 | 0.00 | 0.00 | 0.00 | 83 | 1012.4 |
| 20260502062506 | 10 | 348 | 0.0 | 0.0 | 0.00 | 0.00 | 0.00 | 82 | 1012.4 |
| 20260502062012 | 10 | 348 | 0.0 | 0.0 | 0.00 | 0.00 | 0.00 | 81 | 1012.5 |
| 20260502061526 | 11 | 348 | 0.0 | 0.0 | 0.00 | 0.00 | 0.00 | 81 | 1012.5 |
| 20260502061007 | 11 | 348 | 0.0 | 0.0 | 0.00 | 0.00 | 0.00 | 81 | 1012.6 |
| 20260502060511 | 11 | 348 | 0.0 | 0.0 | 0.00 | 0.00 | 0.00 | 80 | 1012.7 |
| 20260502060025 | 11 | 348 | 0.0 | 0.0 | 0.00 | 0.00 | 0.00 | 79 | 1012.7 |
| 20260502055506 | 11 | 348 | 0.0 | 4.8 | 0.00 | 0.00 | 0.00 | 79 | 1012.8 |
| 20260502055009 | 11 | 348 | 0.0 | 4.8 | 0.00 | 0.00 | 0.00 | 79 | 1012.9 |
| 20260502054533 | 11 | 325 | 0.0 | 4.8 | 0.00 | 0.00 | 0.00 | 78 | 1012.9 |
| 20260502054005 | 11 | 332 | 1.6 | 3.2 | 0.00 | 0.00 | 0.00 | 78 | 1012.8 |
| 20260502053506 | 11 | 41 | 0.0 | 3.2 | 0.00 | 0.00 | 0.00 | 78 | 1012.7 |
| 20260502053026 | 11 | 51 | 0.0 | 3.2 | 0.00 | 0.00 | 0.00 | 77 | 1012.7 |
| 20260502052507 | 12 | 97 | 0.0 | 3.2 | 0.00 | 0.00 | 0.00 | 77 | 1012.6 |
| 20260502052008 | 12 | 135 | 0.0 | 4.8 | 0.00 | 0.00 | 0.00 | 76 | 1012.6 |
| 20260502051531 | 12 | 135 | 0.0 | 4.8 | 0.00 | 0.00 | 0.00 | 76 | 1012.7 |
| 20260502051009 | 12 | 120 | 0.0 | 4.8 | 0.00 | 0.00 | 0.00 | 76 | 1012.8 |
| 20260502050509 | 12 | 252 | 0.0 | 4.8 | 0.00 | 0.00 | 0.00 | 75 | 1012.8 |
| 20260502050030 | 12 | 135 | 0.0 | 3.2 | 0.00 | 0.00 | 0.00 | 75 | 1012.7 |
| 20260502045508 | 12 | 148 | 1.6 | 6.4 | 0.00 | 0.00 | 0.00 | 75 | 1012.7 |
| 20260502045008 | 12 | 148 | 0.0 | 6.4 | 0.00 | 0.00 | 0.00 | 75 | 1012.8 |
| 20260502044528 | 12 | 138 | 1.6 | 11.3 | 0.00 | 0.00 | 0.00 | 75 | 1012.8 |
| 20260502044006 | 12 | 336 | 1.6 | 11.3 | 0.00 | 0.00 | 0.00 | 75 | 1012.8 |
| 20260502043510 | 12 | 117 | 1.6 | 9.7 | 0.00 | 0.00 | 0.00 | 75 | 1012.9 |
| 20260502043032 | 12 | 86 | 1.6 | 8.0 | 0.00 | 0.00 | 0.00 | 75 | 1013.0 |
| 20260502042506 | 12 | 188 | 0.0 | 12.9 | 0.00 | 0.00 | 0.00 | 75 | 1013.0 |
| 20260502042011 | 12 | 197 | 1.6 | 12.9 | 0.00 | 0.00 | 0.00 | 74 | 1013.1 |
| 20260502041527 | 12 | 169 | 3.2 | 12.9 | 0.00 | 0.00 | 0.00 | 74 | 1013.1 |
| 20260502041006 | 12 | 167 | 0.0 | 4.8 | 0.00 | 0.00 | 0.00 | 74 | 1013.1 |
| 20260502040507 | 12 | 150 | 0.0 | 6.4 | 0.00 | 0.00 | 0.00 | 74 | 1013.1 |
| 20260502040029 | 12 | 111 | 0.0 | 6.4 | 0.00 | 0.00 | 0.00 | 73 | 1013.1 |
| 20260502035508 | 12 | 101 | 0.0 | 6.4 | 0.00 | 0.00 | 0.00 | 73 | 1013.0 |
| 20260502035009 | 13 | 193 | 0.0 | 6.4 | 0.00 | 0.00 | 0.00 | 73 | 1012.9 |
| 20260502034528 | 13 | 15 | 0.0 | 4.8 | 0.00 | 0.00 | 0.00 | 72 | 1012.8 |
| 20260502034008 | 13 | 140 | 0.0 | 8.0 | 0.00 | 0.00 | 0.00 | 72 | 1012.9 |
| 20260502033510 | 13 | 197 | 0.0 | 8.0 | 0.00 | 0.00 | 0.00 | 71 | 1012.8 |
| 20260502033029 | 13 | 118 | 1.6 | 8.0 | 0.00 | 0.00 | 0.00 | 71 | 1012.9 |
| 20260502032507 | 13 | 175 | 0.0 | 9.7 | 0.00 | 0.00 | 0.00 | 70 | 1012.8 |
| 20260502032008 | 13 | 190 | 0.0 | 9.7 | 0.00 | 0.00 | 0.00 | 70 | 1012.8 |
| 20260502031528 | 13 | 205 | 0.0 | 6.4 | 0.00 | 0.00 | 0.00 | 69 | 1012.7 |
| 20260502031009 | 13 | 217 | 1.6 | 6.4 | 0.00 | 0.00 | 0.00 | 69 | 1012.5 |
| 20260502030511 | 13 | 126 | 1.6 | 4.8 | 0.00 | 0.00 | 0.00 | 68 | 1012.5 |
| 20260502030028 | 13 | 109 | 0.0 | 9.7 | 0.00 | 0.00 | 0.00 | 68 | 1012.4 |
| 20260502025517 | 13 | 215 | 1.6 | 9.7 | 0.00 | 0.00 | 0.00 | 67 | 1012.2 |
| 20260502025003 | 14 | 166 | 1.6 | 8.0 | 0.00 | 0.00 | 0.00 | 67 | 1012.1 |
| 20260502024523 | 14 | 127 | 1.6 | 8.0 | 0.00 | 0.00 | 0.00 | 66 | 1012.1 |
| 20260502024003 | 14 | 168 | 0.0 | 8.0 | 0.00 | 0.00 | 0.00 | 66 | 1012.2 |
| 20260502023503 | 14 | 105 | 3.2 | 14.5 | 0.00 | 0.00 | 0.00 | 65 | 1012.3 |
| 20260502023005 | 14 | 194 | 1.6 | 14.5 | 0.00 | 0.00 | 0.00 | 65 | 1012.3 |
| 20260502022505 | 15 | 128 | 3.2 | 11.3 | 0.00 | 0.00 | 0.00 | 64 | 1012.4 |
| 20260502022003 | 15 | 98 | 1.6 | 11.3 | 0.00 | 0.00 | 0.00 | 64 | 1012.5 |
| 20260502021503 | 15 | 120 | 3.2 | 11.3 | 0.00 | 0.00 | 0.00 | 63 | 1012.5 |
| 20260502021004 | 15 | 184 | 1.6 | 9.7 | 0.00 | 0.00 | 0.00 | 63 | 1012.4 |
| 20260502020504 | 15 | 137 | 3.2 | 12.9 | 0.00 | 0.00 | 0.00 | 62 | 1012.4 |
| 20260502020003 | 15 | 165 | 3.2 | 17.7 | 0.00 | 0.00 | 0.00 | 62 | 1012.4 |
| 20260502015505 | 15 | 170 | 4.8 | 17.7 | 0.00 | 0.00 | 0.00 | 61 | 1012.3 |
| 20260502015006 | 15 | 182 | 1.6 | 9.7 | 0.00 | 0.00 | 0.00 | 60 | 1012.3 |
| 20260502014504 | 15 | 189 | 3.2 | 12.9 | 0.00 | 0.00 | 0.00 | 60 | 1012.4 |
| 20260502014003 | 15 | 147 | 1.6 | 12.9 | 0.00 | 0.00 | 0.00 | 59 | 1012.3 |
| 20260502013503 | 15 | 148 | 1.6 | 8.0 | 0.00 | 0.00 | 0.00 | 59 | 1012.2 |
| 20260502013008 | 15 | 150 | 1.6 | 4.8 | 0.00 | 0.00 | 0.00 | 59 | 1012.1 |
| 20260502012505 | 15 | 146 | 0.0 | 4.8 | 0.00 | 0.00 | 0.00 | 58 | 1012.1 |
| 20260502012012 | 15 | 165 | 3.2 | 4.8 | 0.00 | 0.00 | 0.00 | 57 | 1012.1 |
| 20260502011504 | 15 | 173 | 0.0 | 8.0 | 0.00 | 0.00 | 0.00 | 57 | 1012.0 |
| 20260502011004 | 15 | 183 | 0.0 | 8.0 | 0.00 | 0.00 | 0.00 | 57 | 1012.0 |
| 20260502010506 | 15 | 166 | 0.0 | 4.8 | 0.00 | 0.00 | 0.00 | 56 | 1012.0 |
| 20260502010025 | 15 | 116 | 0.0 | 4.8 | 0.00 | 0.00 | 0.00 | 56 | 1011.9 |
| 20260502005503 | 15 | 141 | 0.0 | 4.8 | 0.00 | 0.00 | 0.00 | 55 | 1011.9 |
| 20260502005012 | 15 | 167 | 0.0 | 6.4 | 0.00 | 0.00 | 0.00 | 55 | 1011.7 |
| 20260502004510 | 15 | 155 | 1.6 | 6.4 | 0.00 | 0.00 | 0.00 | 54 | 1011.6 |
| 20260502004010 | 15 | 197 | 0.0 | 3.2 | 0.00 | 0.00 | 0.00 | 53 | 1011.5 |
| 20260502003505 | 16 | 126 | 0.0 | 4.8 | 0.00 | 0.00 | 0.00 | 52 | 1011.4 |
| 20260502003003 | 16 | 146 | 0.0 | 4.8 | 0.00 | 0.00 | 0.00 | 52 | 1011.4 |
| 20260502002502 | 16 | 145 | 0.0 | 6.4 | 0.00 | 0.00 | 0.00 | 51 | 1011.4 |
| 20260502002011 | 16 | 295 | 0.0 | 6.4 | 0.00 | 0.00 | 0.00 | 51 | 1011.3 |
| 20260502001504 | 16 | 143 | 0.0 | 4.8 | 0.00 | 0.00 | 0.00 | 49 | 1011.4 |
| 20260502001004 | 16 | 120 | 0.0 | 4.8 | 0.00 | 0.00 | 0.00 | 50 | 1011.4 |
| 20260502000509 | 16 | 141 | 0.0 | 4.8 | 0.00 | 0.00 | 0.00 | 49 | 1011.4 |
| 20260502000005 | 17 | 191 | 1.6 | 9.7 | 0.00 | 0.00 | 0.00 | 48 | 1011.5 |
| 20260501235504 | 17 | 148 | 0.0 | 9.7 | 0.00 | 0.00 | 0.00 | 48 | 1011.5 |
| 20260501235012 | 17 | 119 | 1.6 | 9.7 | 0.00 | 0.00 | 0.00 | 47 | 1011.3 |
| 20260501234503 | 17 | 196 | 1.6 | 4.8 | 0.00 | 0.00 | 0.00 | 47 | 1011.3 |
| 20260501234003 | 17 | 184 | 1.6 | 6.4 | 0.00 | 0.00 | 0.00 | 47 | 1011.3 |
| 20260501233512 | 17 | 110 | 1.6 | 9.7 | 0.00 | 0.00 | 0.00 | 46 | 1011.2 |
| 20260501233004 | 17 | 127 | 1.6 | 9.7 | 0.00 | 0.00 | 0.00 | 46 | 1011.3 |
| 20260501232506 | 18 | 173 | 3.2 | 9.7 | 0.00 | 0.00 | 0.00 | 45 | 1011.2 |
| 20260501232009 | 18 | 176 | 3.2 | 9.7 | 0.00 | 0.00 | 0.00 | 45 | 1011.2 |
| 20260501231506 | 18 | 190 | 1.6 | 11.3 | 0.00 | 0.00 | 0.00 | 46 | 1011.2 |
| 20260501231007 | 18 | 185 | 1.6 | 11.3 | 0.00 | 0.00 | 0.00 | 46 | 1011.2 |
| 20260501230510 | 18 | 117 | 3.2 | 11.3 | 0.00 | 0.00 | 0.00 | 44 | 1011.1 |
| 20260501230004 | 18 | 136 | 1.6 | 14.5 | 0.00 | 0.00 | 0.00 | 43 | 1011.2 |
| 20260501225508 | 18 | 194 | 3.2 | 14.5 | 0.00 | 0.00 | 0.00 | 43 | 1011.2 |
| 20260501225010 | 18 | 165 | 1.6 | 12.9 | 0.00 | 0.00 | 0.00 | 43 | 1011.2 |